Temperature
6 6 6 6 5 5 5 5 4 4 4 4 4 4 4 4 4 4 4 4 4 4 4 4 4 3 3 3 3 3 3 2 2 2 2 2 2 2
5 5 5 5 5 5 5 4 4 4 3 3 4 4 4 4 4 4 4 4 4 3 3 3 3 3 3 3 2 2 2 2 2 2 2 2 2 2
5 5 5 5 4 4 4 4 4 4 3 3 3 3 3 3 3 3 3 3 3 3 3 3 3 3 3 2 2 2 2 2 2 2 2 2 2 2
4 4 4 4 4 4 4 4 3 3 3 3 3 3 3 3 3 3 3 3 3 3 2 2 2 2 2 2 2 2 2 2 1 1 2 1 1 1
4 4 4 4 4 3 3 3 3 3 3 3 3 2 2 2 2 2 2 2 2 2 2 2 2 2 2 2 1 1 1 1 1 1 1 1 1 1
3 3 3 3 3 3 3 3 2 2 2 2 2 2 2 2 2 2 2 2 2 2 2 1 1 1 1 1 1 1 1 1 1 1 1 1 1 1
2 3 2 2 2 2 2 2 2 2 2 2 1 1 1 1 1 1 1 1 2 1 1 1 1 1 1 1 1 1 1 0 0 0 0 0 0 0
2 2 2 2 1 1 1 1 1 1 1 1 1 1 1 1 1 1 1 1 1 1 1 1 1 1 1 0 0 0 0 0 0 -0 0 0 -0 -0
1 1 1 1 1 1 1 1 1 1 1 1 1 0 0 0 0 0 0 -0 -0 -0 0 1 1 0 0 0 0 0 0 -0 -0 -0 -0 -0 -0 -0
1 1 1 0 0 0 0 0 0 0 0 0 0 -0 -0 -0 -0 -1 -1 -0 -0 -0 -1 -1 -0 -0 0 0 -0 -0 -0 -1 -1 -1 -1 -1 -0 -0
0 -0 -0 -0 -0 -0 -0 -0 -0 -0 -0 -0 -0 -0 -1 -1 -1 -1 -1 -1 -1 -1 -1 -2 -1 -1 -1 -0 -0 -1 -1 -1 -1 -1 -1 -1 -1 -1
-0 -1 -1 -1 -1 -1 -1 -1 -1 -1 -1 -1 -1 -1 -1 -1 -1 -1 -1 -2 -2 -2 -2 -3 -2 -2 -2 -1 -1 -1 -1 -1 -1 -1 -1 -1 -1 -1
-1 -1 -1 -1 -1 -1 -1 -1 -1 -1 -1 -1 -1 -1 -1 -1 -1 -2 -2 -2 -2 -3 -3 -3 -3 -3 -3 -3 -2 -1 -2 -1 -1 -1 -1 -1 -1 -2
-2 -1 -1 -1 -1 -1 -1 -1 -1 -1 -1 -1 -1 -2 -2 -2 -2 -2 -2 -2 -3 -3 -3 -3 -3 -3 -3 -3 -3 -2 -2 -2 -2 -2 -2 -1 -2 -2
-2 -2 -2 -2 -2 -2 -2 -2 -2 -2 -2 -2 -2 -2 -2 -2 -2 -2 -2 -3 -3 -3 -3 -3 -3 -3 -3 -3 -3 -3 -3 -2 -2 -2 -2 -2 -2 -2
-2 -2 -2 -2 -2 -2 -2 -2 -2 -2 -2 -2 -2 -3 -3 -3 -3 -3 -3 -3 -3 -3 -3 -3 -3 -3 -3 -3 -3 -3 -3 -3 -3 -3 -3 -2 -2 -3
-3 -3 -2 -2 -2 -2 -2 -3 -3 -3 -3 -3 -3 -3 -3 -3 -3 -3 -3 -3 -3 -3 -3 -3 -3 -3 -3 -3 -3 -4 -4 -3 -3 -3 -3 -3 -2 -3
-3 -3 -3 -3 -3 -3 -3 -3 -3 -3 -3 -3 -3 -3 -3 -3 -3 -3 -3 -3 -4 -4 -4 -4 -4 -3 -3 -3 -4 -4 -4 -4 -4 -3 -4 -3 -3 -3
-3 -3 -3 -3 -3 -3 -3 -3 -3 -3 -4 -4 -4 -4 -4 -4 -4 -4 -4 -4 -4 -4 -4 -4 -4 -4 -4 -5 -4 -4 -4 -4 -4 -4 -4 -4 -4 -3
-4 -4 -3 -3 -3 -3 -4 -4 -4 -4 -4 -4 -4 -4 -4 -4 -4 -4 -4 -4 -5 -5 -4 -4 -4 -5 -5 -5 -5 -4 -5 -5 -5 -4 -4 -4 -4 -3
-4 -4 -4 -4 -4 -4 -4 -4 -4 -4 -4 -4 -4 -4 -5 -5 -5 -5 -5 -5 -5 -5 -5 -5 -5 -5 -5 -5 -5 -5 -4 -5 -5 -5 -4 -4 -4 -3
-4 -4 -4 -4 -4 -4 -4 -4 -4 -4 -4 -5 -5 -5 -5 -5 -5 -5 -5 -5 -5 -5 -5 -5 -5 -5 -5 -5 -5 -5 -5 -4 -4 -4 -5 -5 -5 -5
-4 -4 -4 -4 -4 -4 -4 -4 -4 -4 -5 -5 -5 -5 -5 -5 -5 -5 -5 -5 -5 -5 -5 -5 -5 -5 -5 -5 -5 -5 -5 -5 -4 -4 -4 -5 -5 -5
Wind_Speed
2 3 3 2 2 2 2 3 3 3 4 2 2 2 4 5 7 7 8 9 10 9 9 9 9 9 10 11 11 12 13 14 15 16 17 18 18 19
1 2 2 2 2 1 2 1 2 3 3 2 2 3 4 5 7 8 8 10 10 9 10 10 9 9 10 11 11 12 13 14 15 16 17 18 18 18
1 2 2 2 2 2 2 1 1 1 2 3 2 3 3 4 6 7 8 8 8 9 10 10 10 10 10 11 11 11 12 14 15 16 17 17 18 18
2 2 1 1 1 1 2 1 1 1 2 3 3 3 3 3 4 5 6 7 7 9 10 10 10 11 10 10 11 11 12 13 14 15 16 17 18 18
2 2 1 2 1 1 1 1 1 0 1 1 3 2 2 3 4 4 5 5 7 8 9 10 10 11 10 10 11 12 12 13 14 15 16 17 17 17
2 2 1 2 1 1 1 1 1 1 0 1 2 2 2 3 3 4 5 5 5 6 8 9 11 11 11 11 12 12 13 13 14 14 15 16 16 16
2 2 1 1 1 1 1 1 1 1 1 1 2 2 2 3 4 3 4 5 5 3 5 6 7 7 8 10 11 13 13 13 13 14 15 15 15 15
3 2 2 2 2 3 2 1 0 1 1 1 2 2 3 3 3 3 3 4 4 3 4 6 4 5 6 8 11 13 13 13 13 14 14 15 15 15
3 2 1 2 3 2 3 3 3 3 2 1 2 3 3 3 3 3 3 4 4 3 4 4 4 5 6 9 12 13 13 13 14 14 15 15 15 15
2 2 2 1 1 2 2 2 2 3 3 2 1 2 2 2 2 2 3 4 3 2 2 3 4 4 7 9 11 12 12 14 15 15 15 15 15 15
2 1 1 1 1 3 2 2 2 3 4 5 4 4 4 5 4 2 3 3 3 3 2 2 3 4 5 5 8 11 12 14 15 15 16 16 15 14
2 1 2 2 2 3 2 1 2 2 2 3 4 5 5 6 6 3 1 2 2 2 2 3 3 4 4 4 5 8 10 12 15 15 15 16 16 11
1 1 1 3 3 3 2 1 1 2 2 2 3 3 3 3 4 4 2 1 1 2 3 3 3 3 3 4 5 5 6 7 9 11 13 15 16 12
1 0 1 3 3 3 3 3 3 3 2 2 3 3 3 3 3 4 4 3 2 3 5 4 2 3 4 5 5 5 6 7 7 7 8 13 14 14
1 1 2 3 4 3 4 4 3 2 2 2 2 2 2 3 3 3 4 4 4 4 5 4 3 3 3 3 4 5 6 6 7 6 7 8 8 8
1 2 4 4 4 4 4 3 3 2 1 1 2 2 2 2 3 3 3 3 3 3 5 6 5 3 3 3 4 5 5 5 6 7 7 7 7 7
2 2 2 2 2 2 2 2 2 2 2 1 2 2 2 3 3 3 3 3 3 4 5 4 6 5 3 3 4 5 5 5 6 7 6 7 7 7
2 1 1 1 1 1 1 2 2 2 2 2 2 2 2 3 3 3 3 3 3 4 4 4 5 5 3 2 2 4 4 5 6 6 5 6 7 7
2 1 1 0 0 0 1 1 1 2 2 1 2 2 2 2 2 3 3 3 3 4 4 4 4 4 4 5 4 3 4 6 7 6 5 5 6 7
0 1 1 1 0 0 0 1 1 1 1 1 2 2 2 2 2 3 3 3 4 4 4 3 3 3 3 4 4 5 7 5 5 6 6 5 5 7
0 0 1 1 1 0 0 0 1 1 1 1 2 2 2 1 2 2 2 4 4 3 4 4 5 7 4 2 3 4 5 7 7 5 6 5 5 5
0 0 0 0 1 1 1 0 0 1 1 1 1 2 2 1 2 2 2 3 3 3 4 4 4 4 3 3 4 5 6 7 9 9 7 5 3 3
1 1 0 0 0 1 1 0 0 1 1 1 1 2 2 2 2 2 2 2 2 3 3 4 4 3 3 3 3 4 5 6 6 6 6 9 8 7
Wind_Direction
194 192 185 189 182 180 186 197 205 256 277 279 287 304 327 328 327 330 322 322 321 320 319 318 316 317 318 316 317 318 319 321 320 320 320 319 319 320
172 170 174 175 159 168 182 197 211 212 254 273 280 305 317 325 330 329 322 327 322 321 321 321 322 318 318 318 318 319 320 321 321 321 322 322 322 322
142 127 140 158 162 180 171 168 192 195 248 292 303 316 314 318 332 330 324 322 318 321 323 325 325 321 322 322 320 320 323 323 322 323 324 323 322 322
134 117 114 113 165 180 160 152 168 181 209 273 308 313 303 306 319 320 327 326 322 321 326 328 328 328 325 326 325 326 327 326 326 325 325 324 323 322
139 142 156 122 109 183 158 161 163 145 192 242 295 300 311 323 328 320 320 324 330 327 330 332 329 328 326 328 328 331 331 331 329 328 327 326 325 325
130 145 150 151 180 160 110 147 150 142 183 247 290 311 323 328 325 328 333 332 329 334 338 334 333 331 329 333 335 336 335 334 333 332 331 330 329 328
106 99 111 106 111 113 125 148 155 185 237 279 299 318 324 336 328 324 320 324 323 335 334 328 330 326 328 331 335 336 336 338 338 337 336 335 334 333
106 85 81 71 74 64 64 43 11 241 237 269 292 296 298 305 306 313 321 334 324 338 337 321 328 317 324 328 332 337 341 343 343 343 340 339 338 337
111 102 70 60 50 63 52 32 7 351 323 254 275 277 280 286 297 308 318 317 298 312 330 310 320 315 322 325 333 341 346 349 347 346 345 344 343 342
104 110 104 78 57 66 59 31 14 4 353 345 273 275 284 295 293 299 302 311 299 314 333 303 316 313 321 324 335 347 350 350 350 349 349 349 347 344
86 87 103 120 82 57 53 42 24 6 18 20 12 6 0 360 2 10 352 345 330 329 354 325 313 317 315 318 336 347 349 350 350 351 352 352 350 347
86 79 76 67 62 57 67 66 24 355 10 10 13 12 12 13 14 11 334 337 331 321 340 338 321 336 326 315 328 338 344 347 349 349 352 355 356 356
109 79 54 53 46 37 49 69 26 21 22 13 9 5 4 7 0 357 354 326 314 302 318 334 321 328 309 309 317 328 339 344 345 344 348 353 356 359
128 104 77 55 44 31 43 54 47 40 31 20 17 8 360 351 344 347 351 351 328 286 300 311 299 313 318 316 315 323 333 340 343 342 348 351 354 355
72 67 58 49 40 36 49 51 44 37 30 22 4 345 332 325 330 342 349 354 352 342 334 327 311 308 304 303 309 318 325 329 341 344 347 350 351 353
65 75 57 48 50 53 45 35 30 22 25 2 336 326 329 345 351 349 346 349 349 346 352 354 342 323 319 302 301 310 320 324 333 336 338 342 351 354
104 81 53 38 44 41 35 33 27 18 10 357 346 342 349 357 354 351 354 356 355 342 343 346 346 339 316 304 310 313 320 319 321 332 338 344 348 355
104 113 84 43 36 26 23 13 10 5 353 350 348 346 352 357 353 352 356 358 349 339 335 333 340 345 347 338 309 312 330 328 327 333 336 340 342 347
104 147 182 183 14 343 346 341 339 339 337 344 347 342 349 354 353 353 353 351 346 338 334 336 348 357 352 341 334 343 334 331 333 335 336 334 330 331
98 188 215 198 203 253 280 314 333 343 350 348 348 343 345 346 352 350 347 343 337 334 339 344 349 343 325 310 310 320 332 326 328 330 329 323 317 319
340 267 231 205 208 234 259 287 303 329 342 346 344 340 339 347 346 340 338 341 342 339 341 337 322 326 318 314 323 328 329 345 342 327 325 327 335 351
236 244 255 223 196 207 212 214 302 323 340 346 334 332 331 334 330 330 333 334 332 331 330 328 332 344 357 355 337 327 329 336 350 357 356 359 347 351
222 212 220 245 215 191 186 206 253 293 319 326 322 325 329 327 318 315 318 321 327 336 340 339 343 350 352 345 338 333 335 339 344 355 3 7 4 354
Height
1471 1473 1474 1475 1476 1476 1476 1477 1478 1476 1474 1475 1475 1475 1474 1473 1472 1471 1470 1468 1467 1465 1464 1462 1461 1459 1458 1456 1454 1452 1450 1447 1445 1442 1438 1435 1432 1428
1468 1469 1470 1471 1472 1472 1473 1473 1474 1474 1472 1472 1472 1472 1471 1470 1469 1468 1466 1465 1464 1462 1460 1459 1456 1455 1454 1452 1450 1447 1445 1443 1440 1437 1434 1431 1427 1424
1465 1466 1466 1468 1468 1469 1470 1470 1471 1471 1469 1468 1469 1469 1468 1467 1466 1465 1463 1462 1460 1458 1457 1455 1453 1451 1449 1448 1445 1443 1441 1438 1436 1433 1429 1426 1423 1420
1462 1463 1464 1464 1465 1466 1467 1467 1468 1468 1467 1465 1466 1466 1466 1465 1463 1462 1460 1459 1457 1455 1454 1452 1449 1447 1445 1443 1441 1439 1437 1434 1432 1428 1425 1422 1419 1416
1459 1461 1462 1462 1463 1463 1463 1464 1464 1464 1464 1464 1463 1463 1463 1462 1460 1459 1458 1456 1454 1452 1450 1448 1446 1443 1441 1439 1437 1435 1433 1430 1428 1425 1421 1418 1415 1412
1458 1459 1460 1460 1461 1461 1461 1461 1462 1462 1462 1461 1461 1460 1459 1459 1457 1455 1454 1453 1451 1449 1447 1445 1443 1440 1438 1436 1434 1431 1429 1426 1424 1421 1418 1414 1411 1408
1456 1457 1458 1458 1459 1459 1459 1459 1460 1459 1459 1459 1458 1457 1456 1456 1455 1453 1452 1450 1448 1446 1444 1442 1440 1437 1435 1432 1430 1428 1426 1423 1420 1418 1414 1411 1408 1404
1454 1455 1456 1457 1457 1457 1457 1458 1458 1458 1457 1457 1456 1455 1454 1454 1453 1451 1449 1447 1444 1444 1441 1439 1437 1434 1432 1430 1428 1425 1423 1420 1417 1415 1411 1408 1404 1401
1453 1453 1454 1455 1456 1455 1455 1456 1456 1456 1456 1456 1454 1454 1453 1453 1452 1450 1448 1446 1443 1441 1438 1435 1434 1432 1430 1427 1425 1422 1420 1417 1415 1412 1408 1405 1401 1398
1451 1452 1453 1453 1454 1454 1454 1454 1454 1454 1454 1454 1453 1452 1451 1450 1449 1448 1446 1444 1442 1440 1437 1434 1432 1430 1427 1426 1423 1421 1418 1416 1413 1409 1406 1402 1399 1395
1450 1451 1451 1452 1453 1453 1453 1452 1452 1452 1452 1452 1452 1450 1449 1448 1447 1446 1444 1442 1439 1438 1436 1433 1430 1427 1425 1424 1422 1419 1417 1414 1411 1407 1404 1400 1397 1393
1449 1450 1451 1451 1451 1451 1451 1451 1451 1451 1450 1450 1450 1449 1448 1447 1446 1444 1442 1440 1438 1436 1435 1433 1430 1427 1424 1422 1420 1418 1415 1412 1409 1406 1402 1399 1395 1391
1448 1449 1449 1450 1450 1450 1450 1450 1450 1450 1449 1449 1447 1447 1446 1445 1444 1443 1441 1439 1437 1435 1434 1432 1429 1427 1425 1421 1418 1416 1414 1410 1407 1404 1401 1398 1394 1391
1446 1447 1447 1448 1449 1449 1449 1449 1449 1449 1448 1447 1446 1446 1445 1444 1443 1441 1440 1438 1436 1435 1433 1431 1429 1426 1423 1420 1417 1415 1413 1410 1406 1403 1399 1397 1394 1390
1445 1446 1446 1447 1447 1448 1448 1448 1448 1447 1447 1446 1445 1445 1444 1443 1442 1440 1439 1437 1436 1434 1432 1430 1428 1426 1423 1420 1417 1414 1411 1408 1406 1402 1399 1396 1392 1389
1444 1444 1445 1446 1446 1446 1446 1447 1447 1446 1446 1445 1444 1444 1443 1442 1440 1439 1437 1436 1434 1432 1431 1429 1427 1425 1422 1419 1417 1414 1411 1408 1405 1402 1399 1395 1392 1389
1443 1443 1444 1444 1444 1445 1445 1445 1445 1445 1445 1444 1444 1443 1442 1440 1439 1438 1436 1434 1432 1430 1429 1428 1426 1424 1422 1419 1416 1414 1411 1408 1405 1402 1398 1394 1392 1389
1442 1441 1442 1442 1443 1443 1444 1444 1444 1444 1444 1443 1443 1441 1440 1439 1438 1436 1435 1433 1431 1429 1427 1426 1424 1422 1420 1418 1417 1413 1410 1408 1405 1402 1399 1395 1391 1389
1440 1440 1440 1441 1441 1442 1442 1443 1442 1442 1442 1442 1441 1440 1439 1438 1436 1435 1434 1432 1431 1429 1427 1425 1423 1421 1419 1416 1415 1414 1410 1407 1404 1402 1398 1395 1392 1389
1438 1438 1439 1439 1440 1441 1441 1441 1441 1441 1440 1440 1439 1438 1437 1437 1435 1434 1433 1432 1430 1428 1427 1425 1423 1422 1420 1418 1415 1412 1411 1407 1404 1401 1398 1396 1393 1391
1436 1437 1437 1438 1439 1439 1439 1439 1439 1439 1439 1438 1438 1437 1436 1435 1434 1433 1433 1431 1430 1428 1426 1425 1423 1422 1420 1418 1415 1412 1410 1408 1405 1402 1399 1395 1392 1389
1435 1435 1436 1436 1437 1438 1438 1438 1438 1437 1437 1437 1437 1436 1435 1435 1434 1433 1432 1431 1429 1428 1426 1425 1423 1421 1420 1418 1415 1412 1409 1407 1405 1403 1400 1397 1394 1391
1433 1434 1434 1435 1436 1436 1436 1436 1436 1436 1436 1436 1435 1435 1434 1434 1433 1432 1432 1431 1429 1428 1426 1424 1423 1421 1419 1417 1415 1412 1410 1407 1405 1402 1400 1399 1397 1395